Formosa, Argentina

8:44 AM ART on February 08, 2016 (GMT -0300)
Formosa

Weather History for SARF - October, 2012

Change the Weather History Date:

Monday, October 29, 2012

  Actual Average Record
Temperature  
Mean Temperature 84 °F -  
Max Temperature 97 °F 87 °F 104 °F (2014)
Min Temperature 71 °F 66 °F -22 °F (1999)
Cooling Degree Days 19    
Growing Degree Days 34 (Base 50)    
Moisture  
Dew Point 74 °F    
Average Humidity 67    
Maximum Humidity 94    
Minimum Humidity 45    
Precipitation  
Precipitation 0.00 in 0.22 in - ()
Sea Level Pressure  
Sea Level Pressure 29.67 in    
Wind  
Wind Speed 7 mph ()    
Max Wind Speed 13 mph    
Max Gust Speed -    
Visibility 12.0 miles    
Events      
Averages and records for this station are not official NWS values.
T = Trace of Precipitation, MM = Missing Value Source: Averaged Metar Reports

Daily Weather History Graph

Daily Weather History Graph

Search for Another Location

Airport or City:

Trip Planner

Search our weather history database for the weather conditions in past years. The results will help you decide how hot, cold, wet, or windy it might be!

Date:

Astronomy

Oct. 29, 2012 Rise Set
Actual Time 6:05 AM ART 7:08 PM ART
Civil Twilight 5:41 AM ART 7:32 PM ART
Nautical Twilight 5:12 AM ART 8:00 PM ART
Astronomical Twilight 4:43 AM ART 8:30 PM ART
Moon 7:10 PM ART (10/29) 5:45 AM ART (10/29)
Length of Visible Light 13h 51m
Length of Day
13h 02m
Full, 100% of the Moon is Illuminated
Oct 29
Full
Oct 29
Full
Nov 6
Last Quarter
Nov 13
New
Nov 20
First Quarter

Hourly Weather History & Observations

Time (ART) Temp. Heat Index Dew Point Humidity Pressure Visibility Wind Dir Wind Speed Gust Speed Precip Events Conditions
1:00 AM 71.6 °F - 69.8 °F 94% 29.77 in - East 5.8 mph - N/A   Clear
2:00 AM 71.6 °F - 68.0 °F 88% 29.74 in - East 4.6 mph - N/A   Clear
3:00 AM 71.6 °F - 69.8 °F 94% 29.71 in - NE 6.9 mph - N/A   Clear
6:00 AM 73.4 °F - 71.6 °F 94% 29.68 in - North 6.9 mph - N/A   Clear
7:00 AM 75.2 °F - 71.6 °F 89% 29.71 in - North 11.5 mph - N/A   Clear
8:00 AM 80.6 °F 84.6 °F 71.6 °F 74% 29.71 in - North 12.7 mph - N/A   Clear
9:00 AM 93.2 °F 102.4 °F 73.4 °F 52% 29.71 in - North 9.2 mph - N/A   Clear
11:00 AM 91.4 °F 98.4 °F 71.6 °F 52% 29.74 in - North 9.2 mph - N/A   Clear
1:00 PM 95.0 °F 104.5 °F 73.4 °F 49% 29.71 in - North 12.7 mph - N/A   Clear
2:00 PM 93.2 °F 102.4 °F 73.4 °F 52% 29.68 in - NNE 11.5 mph - N/A   Clear
3:00 PM 95 °F - 76 °F 45% 29.64 in 12 mi North 4.6 mph - -   Overcast
3:00 PM 95.0 °F 107.4 °F 75.2 °F 53% 29.65 in - North 4.6 mph - N/A   Clear
4:00 PM 96.8 °F 109.6 °F 75.2 °F 50% 29.62 in - NNE 6.9 mph - N/A   Clear
5:00 PM 95.0 °F 107.4 °F 75.2 °F 53% 29.62 in - NNE 5.8 mph - N/A   Clear
6:00 PM 93.2 °F 110.2 °F 78.8 °F 63% 29.62 in - East 10.4 mph - N/A   Clear
7:00 PM 89.6 °F 104.7 °F 78.8 °F 70% 29.62 in - East 6.9 mph - N/A   Clear
8:00 PM 87.8 °F 102.5 °F 78.8 °F 75% 29.62 in - East 6.9 mph - N/A   Clear
9:00 PM 89 °F - 77 °F 60% 29.62 in 12 mi NE 10.4 mph - -   Clear
9:00 PM 89.6 °F 102.2 °F 77.0 °F 66% 29.65 in - NE 10.4 mph - N/A   Clear
10:00 PM 87.8 °F 97.6 °F 75.2 °F 66% 29.65 in - NE 10.4 mph - N/A   Clear
11:00 PM 86.0 °F 95.1 °F 75.2 °F 70% 29.65 in - NE 11.5 mph - N/A   Clear